Flag for Switzerland Weather past 2 weeks in Yverdon-les-Bains, Vaud, Switzerland

Now
50 °F

Cool.


Feels Like: 46 °F
Forecast: 46 / 51 °F
Wind: 9 mph from Southwest

Location: Payerne

Current Time: Mar 28, 2015 at 7:14:24 PM

Latest Report: Mar 28, 2015 at 6:00 PM


Visibility: N/A

Pressure: 30.16 "Hg

Humidity: 56%

Dew point: 35 °F

Location of Yverdon-les-BainsLocation

Historic Weather in Yverdon-les-Bains — Graph

°F

Yverdon-les-Bains temperature yesterday

Maximum temperature yesterday: 52 °F (at 2:00 PM)
Minimum temperature yesterday: 36 °F (at 11:00 PM)
Average temperature yesterday: 45 °F

Past Weeks' High & Low Weather Summary

 TemperatureHumidityPressure
High62 °F (Mar 18, 2:40 PM)96% (Mar 21, 11:00 PM)30.34 "Hg (Mar 21, 11:00 PM)
Low29 °F (Mar 15, 5:00 AM)32% (Mar 17, 5:00 PM)29.63 "Hg (Mar 25, 11:00 AM)
Average44 °F73%30.06 "Hg
* Reported Mar 13 5:00 PM — Mar 28 5:00 PM, Yverdon-les-Bains, Weather by CustomWeather, © 2015

Note: Actual official high and low records may vary slightly from our data, if they occured in-between our weather recording intervals... More about our weather records

Advertising

Yverdon-les-Bains weather history for previous 24 hours

 ConditionsComfort  
Time TempWeatherWind HumidityBarometerVisibility
5:00 PM
Sat, Mar 28
51 °FCool.9 mph50%30.15 "HgN/A
4:00 PM51 °FCool.6 mph58%30.15 "HgN/A
3:00 PM54 °FCool.7 mph47%30.13 "HgN/A
2:00 PM52 °FCool.3 mph52%30.15 "HgN/A
1:00 PM51 °FOvercast.3 mph53%30.17 "Hg11 mi
12:00 PM49 °FCool.2 mph51%30.20 "HgN/A
11:00 AM46 °FCool.1 mph57%30.23 "HgN/A
10:00 AM43 °FScattered clouds.2 mph69%30.26 "Hg12 mi
9:00 AM39 °FChilly.2 mph76%30.29 "HgN/A
8:00 AM34 °FChilly.1 mph85%30.32 "HgN/A
7:00 AM29 °FPassing clouds.No wind95%30.34 "Hg11 mi
6:00 AM29 °FChilly.1 mph94%30.33 "HgN/A
5:00 AM30 °FChilly.1 mph93%30.33 "HgN/A
3:00 AM32 °FChilly.1 mph86%30.33 "HgN/A
2:00 AM34 °FChilly.1 mph82%30.32 "HgN/A
1:00 AM35 °FPassing clouds.5 mph81%30.32 "Hg14 mi
12:00 AM35 °FChilly.1 mph82%30.33 "HgN/A
11:00 PM
Fri, Mar 27
36 °FChilly.2 mph80%30.32 "HgN/A
9:00 PM42 °FQuite cool.1 mph65%30.28 "HgN/A
8:00 PM42 °FQuite cool.1 mph73%30.27 "HgN/A
7:00 PM46 °FPassing clouds.1 mph58%30.24 "Hg11 mi
Weather by CustomWeather, © 2015

See weather overviewHow to use our weather pages